Weather History for KALO - December, 2012

Change the Weather History Date:

Wednesday, December 19, 2012

  Actual Average Record
Temperature  
Mean Temperature 33 °F 21 °F  
Max Temperature 35 °F 29 °F 52 °F (1979)
Min Temperature 31 °F 12 °F -25 °F (1985)
Degree Days  
Heating Degree Days 32 44  
Month to date heating degree days 583 782  
Since 1 July heating degree days 2071 2265  
Cooling Degree Days 0 0  
Month to date cooling degree days 0 0  
Year to date cooling degree days 1083 799  
Moisture  
Dew Point 30 °F    
Average Humidity 91    
Maximum Humidity 100    
Minimum Humidity 82    
Precipitation  
Precipitation 0.50 in 0.04 in 0.68 in (1987)
Month to date precipitation 1.32 0.82  
Year to date precipitation 23.65 34.22  
Snow  
Snow 5.50 in 0.30 in 5.50 in (2012)
Month to date snowfall 5.8 6.2  
Since 1 July snowfall 5.8 9.6  
Snow Depth 0.00 in    
Sea Level Pressure  
Sea Level Pressure 29.92 in    
Wind  
Wind Speed 8 mph (ENE)    
Max Wind Speed 20 mph    
Max Gust Speed 25 mph    
Visibility 4 miles    
Events Fog , Snow    
T = Trace of Precipitation, MM = Missing Value Source: NWS Daily Summary

Daily Weather History Graph

Daily Weather History Graph

Search for Another Location

Airport or City:

Trip Planner

Search our weather history database for the weather conditions in past years. The results will help you decide how hot, cold, wet, or windy it might be!

Date:

Astronomy

Dec. 19, 2012 Rise Set
Actual Time 7:35 AM CST 4:38 PM CST
Civil Twilight 7:03 AM CST 5:10 PM CST
Nautical Twilight 6:27 AM CST 5:46 PM CST
Astronomical Twilight 5:53 AM CST 6:20 PM CST
Moon 11:36 AM CST (12/19) No Moon Set
Length of Visible Light 10h 07m
Length of Day
9h 03m
Waxing Crescent, 45% of the Moon is Illuminated
Dec 19
Waxing Crescent
Dec 19
First Quarter
Dec 28
Full
Jan 4
Last Quarter
Jan 11
New

Hourly Weather History & Observations

Time (CST) Temp. Windchill Dew Point Humidity Pressure Visibility Wind Dir Wind Speed Gust Speed Precip Events Conditions
12:54 AM 32.0 °F 27.5 °F 28.9 °F 88% 29.91 in 5.0 mi WNW 4.6 mph - N/A   Overcast
1:54 AM 30.9 °F - 28.9 °F 92% 29.92 in 6.0 mi Calm Calm - N/A   Overcast
2:54 AM 32.0 °F 27.5 °F 30.0 °F 92% 29.94 in 6.0 mi WSW 4.6 mph - N/A   Overcast
3:54 AM 32.0 °F 27.5 °F 30.0 °F 92% 29.95 in 6.0 mi SSW 4.6 mph - N/A   Overcast
4:54 AM 32.0 °F 28.7 °F 30.0 °F 92% 29.97 in 6.0 mi South 3.5 mph - N/A   Overcast
5:54 AM 32.0 °F 27.5 °F 30.2 °F 93% 29.96 in 6.0 mi SSW 4.6 mph - N/A   Overcast
6:54 AM 32.0 °F - 28.9 °F 88% 29.99 in 7.0 mi Calm Calm - N/A   Overcast
7:54 AM 32.0 °F - 30.0 °F 92% 29.99 in 7.0 mi Calm Calm - N/A   Overcast
8:54 AM 32.0 °F 28.7 °F 30.0 °F 92% 30.00 in 6.0 mi SE 3.5 mph - N/A   Overcast
9:54 AM 32.0 °F 25.6 °F 28.9 °F 88% 30.02 in 6.0 mi SE 6.9 mph - N/A   Overcast
10:10 AM 33.8 °F 28.6 °F 30.2 °F 87% 29.99 in 6.0 mi South 5.8 mph - N/A   Overcast
10:54 AM 33.1 °F 27.7 °F 30.0 °F 89% 30.03 in 6.0 mi SSW 5.8 mph - N/A   Overcast
11:54 AM 33.1 °F 26.9 °F 30.0 °F 89% 30.04 in 7.0 mi South 6.9 mph - N/A   Overcast
12:32 PM 33.8 °F 28.6 °F 30.2 °F 87% 29.99 in 7.0 mi SE 5.8 mph - N/A   Overcast
12:54 PM 34.0 °F 31.0 °F 30.0 °F 85% 30.01 in 6.0 mi SSE 3.5 mph - N/A   Overcast
1:54 PM 35.1 °F 28.6 °F 30.0 °F 82% 29.99 in 7.0 mi ENE 8.1 mph - N/A   Overcast
2:54 PM 34.0 °F 26.6 °F 30.0 °F 85% 29.97 in 6.0 mi ENE 9.2 mph - N/A   Overcast
3:54 PM 34.0 °F 25.0 °F 30.0 °F 85% 29.96 in 4.0 mi East 12.7 mph - N/A   Overcast
4:54 PM 33.1 °F 23.0 °F 30.0 °F 89% 29.91 in 6.0 mi NE 15.0 mph - N/A   Overcast
5:02 PM 33.8 °F 24.8 °F 30.2 °F 87% 29.88 in 6.0 mi ENE 12.7 mph 23.0 mph N/A   Overcast
5:22 PM 33.8 °F 25.3 °F 30.2 °F 87% 29.91 in 6.0 mi East 11.5 mph - N/A   Overcast
5:54 PM 33.1 °F 25.5 °F 30.0 °F 89% 29.96 in 7.0 mi East 9.2 mph - N/A   Overcast
6:52 PM 33.8 °F 25.8 °F 30.2 °F 87% 29.93 in 1.8 mi East 10.4 mph - 0.00 in Snow Light Snow
6:54 PM 32.0 °F 23.0 °F 30.0 °F 92% 29.96 in 1.5 mi East 11.5 mph - 0.00 in Snow Light Snow
7:01 PM 32.0 °F 23.6 °F 30.2 °F 93% 29.92 in 1.5 mi ENE 10.4 mph - 0.00 in Snow Light Snow
7:30 PM 32.0 °F 23.0 °F 30.2 °F 93% 29.91 in 0.8 mi ENE 11.5 mph - 0.02 in Snow Light Snow
7:37 PM 32.0 °F 23.0 °F 30.2 °F 93% 29.90 in 0.8 mi ENE 11.5 mph - 0.03 in Snow Light Snow
7:54 PM 32.0 °F 22.5 °F 30.9 °F 96% 29.92 in 0.8 mi ENE 12.7 mph - 0.05 in Snow Light Snow
8:27 PM 32.0 °F 21.6 °F 30.2 °F 93% 29.86 in 1.0 mi ENE 15.0 mph - 0.04 in Snow Light Snow
8:54 PM 32.0 °F 20.8 °F 30.9 °F 96% 29.86 in 1.0 mi NE 17.3 mph - 0.05 in Snow Light Snow
9:04 PM 32.0 °F 21.2 °F 30.2 °F 93% 29.83 in 0.8 mi NE 16.1 mph - 0.01 in Snow Light Snow
9:25 PM 32.0 °F 20.8 °F 30.2 °F 93% 29.82 in 1.0 mi NE 17.3 mph 25.3 mph 0.04 in Snow Light Snow
9:43 PM 32.0 °F 20.8 °F 30.2 °F 93% 29.82 in 0.8 mi NE 17.3 mph - 0.06 in Snow Light Snow
9:54 PM 32.0 °F 21.6 °F 30.9 °F 96% 29.84 in 0.8 mi NE 15.0 mph - 0.07 in Snow Light Snow
10:54 PM 30.9 °F 19.1 °F 30.9 °F 100% 29.82 in 0.2 mi NNE 18.4 mph 24.2 mph 0.15 in Fog , Snow Heavy Snow
11:10 PM 30.2 °F 18.5 °F 30.2 °F 100% 29.77 in 0.5 mi NNE 17.3 mph - 0.06 in Fog , Snow Snow
11:17 PM 30.2 °F 18.9 °F 30.2 °F 100% 29.77 in 0.2 mi NNE 16.1 mph - 0.08 in Fog , Snow Heavy Snow
11:37 PM 30.2 °F 18.9 °F 30.2 °F 100% 29.78 in 0.5 mi NNE 16.1 mph - 0.14 in Fog , Snow Snow
11:51 PM 30.2 °F 19.3 °F 30.2 °F 100% 29.77 in 0.5 mi NNE 15.0 mph - 0.17 in Fog , Snow Snow
11:54 PM 30.9 °F 20.2 °F 30.9 °F 100% 29.80 in 0.5 mi NNE 15.0 mph - 0.17 in Fog , Snow Snow